Time[GMT],air_temperature[C](-3m),wind_speed[m/s](-4m),wind_gust[m/s](-4m),visibility[m](-3m),barometric_pressure[millibars](-3m),wind_2_direction[degrees_true](-4m),wind_2_gust[m/s](-4m),wind_2_gust_1s[m/s](-4m),wind_2_min[m/s](-4m),wind_2_percent_good[1](-4m),wind_2_speed[m/s](-4m),wind_direction[degrees_true](-4m),wind_gust_1s[m/s](-4m),wind_min[m/s](-4m)
2018-10-01 16:00,12.8,,,2339,1027.74,42.44,6.25,6.66,2.93,1.00,5.09,,,
2018-10-01 17:00,13.1,,,2993,1027.62,44.39,4.44,5.28,2.00,1.00,3.61,,,
2018-10-01 18:00,13.4,,,2993,1027.25,38.63,5.78,6.28,3.17,1.00,4.69,,,
2018-10-01 19:00,13.4,,,2993,1027.13,23.61,8.31,8.89,4.36,1.00,6.95,,,
2018-10-01 20:00,13.0,,,2993,1027.13,32.57,9.28,10.03,4.45,1.00,7.57,,,
2018-10-01 21:00,12.7,,,2993,1027.00,48.15,8.44,9.10,4.07,1.00,7.16,,,
2018-10-01 22:00,12.9,,,2993,1027.50,39.00,8.23,9.10,4.28,1.00,6.41,,,
2018-10-01 23:00,12.7,,,2993,1027.62,40.53,7.19,8.02,4.49,1.00,6.12,,,
2018-10-02 00:00,12.8,,,2993,1027.87,48.75,6.67,7.20,3.54,1.00,5.57,,,
2018-10-02 01:00,12.9,,,2993,1027.62,58.51,6.24,7.20,3.30,1.00,5.26,,,
2018-10-02 02:00,13.1,,,2993,1027.99,71.80,5.71,6.48,2.41,1.00,4.70,,,
2018-10-02 03:00,13.0,,,2993,1028.36,56.13,5.11,5.59,2.10,1.00,3.88,,,
2018-10-02 04:00,13.0,,,2993,1027.74,72.50,5.32,5.87,2.25,1.00,4.26,,,
2018-10-02 05:00,13.1,,,2993,1027.37,53.47,5.87,6.92,2.95,1.00,4.94,,,
2018-10-02 06:00,13.2,,,2993,1027.13,52.29,6.12,6.86,2.84,1.00,5.10,,,
2018-10-02 07:00,13.1,,,2993,1026.14,66.40,6.48,7.23,3.05,1.00,5.17,,,
2018-10-02 08:00,12.8,,,2993,1025.65,71.30,6.61,7.17,3.66,1.00,5.62,,,
2018-10-02 09:00,12.7,,,2961,1025.52,57.42,6.84,7.86,3.89,1.00,5.78,,,
2018-10-02 10:00,12.5,,,2388,1026.02,43.28,7.29,7.81,4.34,1.00,6.12,,,
2018-10-02 11:00,12.8,,,2993,1025.89,53.12,8.73,9.58,5.23,1.00,7.49,,,
2018-10-02 12:00,12.8,,,2610,1026.02,49.25,9.31,10.10,5.48,1.00,7.75,,,
2018-10-02 13:00,12.8,,,2993,1026.02,53.13,9.17,9.66,5.11,1.00,7.67,,,
2018-10-02 14:00,13.0,,,2993,1025.65,69.50,8.60,9.28,5.10,1.00,7.30,,,
2018-10-02 15:00,13.2,,,2993,1024.91,72.20,8.68,9.38,4.87,1.00,7.20,,,
2018-10-02 16:00,13.1,,,2993,1024.17,65.40,7.90,9.32,4.52,1.00,6.77,,,
2018-10-02 17:00,13.0,,,2993,1023.06,69.20,8.17,9.07,4.79,1.00,6.97,,,
2018-10-02 18:00,12.8,,,2936,1021.95,56.37,7.94,8.82,4.61,1.00,6.75,,,
2018-10-02 19:00,12.6,,,2458,1020.72,71.40,9.09,9.57,4.87,1.00,7.57,,,
2018-10-02 20:00,12.5,,,2482,1020.35,54.69,8.28,9.30,4.64,1.00,7.16,,,
2018-10-02 21:00,12.8,,,2423,1019.37,64.53,8.64,10.08,4.02,1.00,7.28,,,
2018-10-02 22:00,13.0,,,2452,1018.51,64.21,9.02,9.65,5.04,1.00,7.66,,,
2018-10-02 23:00,13.0,,,2908,1018.38,30.41,8.22,8.89,5.00,1.00,7.17,,,
2018-10-03 00:00,12.2,,,2337,1017.65,15.92,8.41,9.49,4.88,1.00,7.41,,,
2018-10-03 01:00,11.8,,,2993,1017.28,14.89,8.58,9.60,4.66,1.00,7.31,,,
2018-10-03 02:00,11.6,,,2993,1016.79,8.49,8.51,9.10,5.10,1.00,7.11,,,
2018-10-03 03:00,11.5,,,2900,1016.29,15.69,8.33,9.14,4.71,1.00,7.09,,,
2018-10-03 04:00,10.9,,,2985,1016.29,4.87,7.70,9.05,4.32,1.00,6.58,,,
2018-10-03 05:00,10.9,,,2864,1015.80,9.18,8.43,9.09,5.09,1.00,7.14,,,
2018-10-03 06:00,11.0,,,2712,1015.43,14.17,7.40,8.18,4.64,1.00,6.34,,,
2018-10-03 07:00,11.1,,,2993,1014.82,7.59,7.33,7.68,3.93,1.00,6.01,,,
2018-10-03 08:00,11.1,,,2987,1014.82,9.70,7.11,8.11,3.89,1.00,6.22,,,
2018-10-03 09:00,11.1,,,2980,1014.82,3.44,7.57,8.10,3.84,1.00,6.06,,,
2018-10-03 10:00,11.1,,,2740,1015.07,5.95,7.49,8.03,3.90,1.00,6.20,,,
2018-10-03 11:00,11.3,,,2993,1015.56,353.53,7.96,8.55,4.66,1.00,6.53,,,
2018-10-03 12:00,11.4,,,2993,1015.56,14.08,7.86,8.57,4.81,1.00,6.66,,,
2018-10-03 13:00,11.5,,,2993,1016.42,357.24,7.38,7.71,3.95,1.00,5.90,,,
2018-10-03 14:00,11.8,,,2993,1016.91,6.82,6.74,7.40,3.00,1.00,5.49,,,
2018-10-03 15:00,12.0,,,2993,1017.28,7.52,5.74,6.22,2.30,1.00,4.40,,,
2018-10-03 16:00,13.2,,,2993,1017.65,350.31,2.64,3.27,0.61,1.00,1.75,,,
2018-10-03 17:00,13.6,,,2993,1017.52,303.80,3.82,4.48,1.34,1.00,2.72,,,
2018-10-03 18:00,14.0,,,2993,1016.91,305.40,2.41,3.33,0.60,1.00,1.72,,,
2018-10-03 19:00,14.6,,,2993,1017.03,230.00,1.67,2.43,0.05,1.00,1.10,,,
2018-10-03 20:00,15.6,,,2884,1017.15,207.70,2.01,2.48,0.40,1.00,1.36,,,
2018-10-03 21:00,15.1,,,2741,1017.15,166.00,3.38,3.71,1.43,1.00,2.61,,,
2018-10-03 22:00,14.7,,,2993,1017.40,200.30,2.95,3.62,1.46,1.00,2.49,,,
2018-10-03 23:00,14.8,,,2993,1017.89,176.80,3.44,3.83,2.09,1.00,2.97,,,
2018-10-04 00:00,14.8,,,2993,1018.51,184.60,3.57,3.96,2.20,1.00,3.03,,,
2018-10-04 01:00,14.8,,,2993,1018.75,149.80,3.73,4.21,1.67,1.00,2.87,,,
2018-10-04 02:00,14.7,,,2993,1019.37,129.60,5.13,5.55,2.54,1.00,3.93,,,
2018-10-04 03:00,14.6,,,2993,1019.12,124.50,4.73,5.24,2.35,1.00,4.04,,,
2018-10-04 04:00,14.5,,,2993,1018.63,131.20,5.33,5.74,2.99,1.00,4.45,,,
2018-10-04 05:00,14.3,,,2993,1017.89,146.20,6.44,6.94,3.71,1.00,5.50,,,
2018-10-04 06:00,14.4,,,2993,1017.65,156.70,5.87,6.52,3.13,1.00,4.78,,,
2018-10-04 07:00,14.3,,,2993,1017.03,168.00,5.57,6.08,3.24,1.00,4.80,,,
2018-10-04 08:00,14.4,,,2993,1016.91,178.30,6.17,6.68,3.48,1.00,5.16,,,
2018-10-04 09:00,14.7,,,2993,1016.79,186.70,6.96,7.46,3.67,1.00,5.76,,,
2018-10-04 10:00,15.1,,,2993,1016.42,205.80,6.06,6.77,3.16,1.00,4.98,,,
2018-10-04 11:00,15.1,,,2993,1016.17,210.40,6.21,6.90,2.84,1.00,5.03,,,
2018-10-04 12:00,15.2,,,2993,1016.42,214.10,7.87,8.76,4.26,1.00,6.37,,,
2018-10-04 13:00,15.2,,,2979,1016.05,200.70,7.59,8.20,4.56,1.00,6.43,,,
2018-10-04 14:00,15.3,,,2991,1015.93,201.40,8.07,8.83,3.45,1.00,6.44,,,
2018-10-04 15:00,15.4,,,2993,1015.31,195.00,9.07,9.59,4.65,1.00,7.32,,,
2018-10-04 16:00,15.5,,,2993,1014.45,189.00,9.77,10.35,5.35,1.00,7.92,,,
2018-10-04 17:00,15.6,,,2978,1013.10,182.80,9.48,10.31,5.72,1.00,8.15,,,
2018-10-04 18:00,15.8,,,2926,1011.75,181.50,10.94,11.98,6.78,1.00,9.37,,,
2018-10-04 19:00,16.2,,,2993,1011.87,182.00,8.50,9.44,5.07,1.00,7.32,,,
2018-10-04 20:00,16.4,,,2993,1011.26,183.40,8.16,9.35,4.87,1.00,6.95,,,
2018-10-04 21:00,16.5,,,2993,1010.77,185.30,7.65,8.92,4.63,1.00,6.65,,,
2018-10-04 22:00,16.9,,,2993,1010.89,199.00,7.79,8.49,4.22,1.00,6.29,,,
2018-10-04 23:00,16.7,,,2993,1011.38,196.20,6.29,7.31,3.54,1.00,5.40,,,
2018-10-05 00:00,16.6,,,2993,1011.63,189.90,5.45,6.19,2.84,1.00,4.70,,,
2018-10-05 01:00,16.6,,,2993,1011.87,208.90,5.35,6.17,3.50,1.00,4.81,,,
2018-10-05 02:00,16.3,,,2993,1012.24,221.20,2.73,3.62,1.13,1.00,2.23,,,
2018-10-05 03:00,16.8,,,2993,1012.73,245.50,4.22,5.01,2.25,1.00,3.76,,,
2018-10-05 04:00,16.8,,,2993,1013.59,285.90,4.19,4.81,1.82,1.00,3.53,,,
2018-10-05 05:00,16.2,,,2993,1014.57,359.79,3.90,4.57,1.84,1.00,3.34,,,
2018-10-05 06:00,16.4,,,2993,1014.94,4.70,4.77,5.76,2.80,1.00,4.07,,,
2018-10-05 07:00,16.1,,,2993,1015.93,12.68,7.81,8.81,4.38,1.00,6.64,,,
2018-10-05 08:00,15.4,,,2993,1016.91,4.20,8.60,9.86,4.19,1.00,7.26,,,
2018-10-05 09:00,14.2,,,2993,1018.26,4.12,10.80,12.40,6.37,1.00,9.25,,,
2018-10-05 10:00,12.8,,,2993,1019.49,11.40,11.81,12.39,6.90,1.00,9.41,,,
2018-10-05 11:00,11.8,,,2993,1020.84,14.71,12.85,13.81,8.35,1.00,10.94,,,
2018-10-05 12:00,11.2,,,2728,1022.08,20.50,12.74,13.58,6.53,1.00,9.97,,,
2018-10-05 13:00,10.7,,,2841,1023.06,25.35,11.85,12.32,6.28,1.00,9.16,,,
2018-10-05 14:00,10.6,,,2771,1023.55,33.10,11.92,12.60,5.83,1.00,9.31,,,
2018-10-05 15:00,10.6,,,2474,1023.68,34.69,10.65,11.09,5.55,1.00,8.29,,,
2018-10-05 16:00,10.7,,,2472,1023.68,42.76,8.25,8.90,3.79,1.00,6.41,,,
2018-10-05 17:00,10.8,,,2800,1023.31,56.71,6.59,7.07,2.79,1.00,4.73,,,
2018-10-05 18:00,11.1,,,2384,1022.69,70.50,5.25,6.39,2.32,1.00,4.05,,,
2018-10-05 19:00,11.5,,,2456,1022.08,77.20,5.38,5.97,2.06,1.00,4.16,,,
2018-10-05 20:00,11.8,,,2411,1021.95,90.90,4.48,5.05,0.83,1.00,2.72,,,
2018-10-05 21:00,12.0,,,2361,1021.95,119.50,3.71,4.75,0.00,1.00,2.69,,,
2018-10-05 22:00,11.6,,,2831,1022.08,129.40,3.59,4.23,0.84,1.00,2.47,,,
2018-10-05 23:00,11.7,,,2902,1022.57,149.90,2.89,3.38,0.58,1.00,1.93,,,
2018-10-06 00:00,11.8,,,2880,1022.94,126.00,2.38,2.95,0.02,1.00,1.49,,,
2018-10-06 01:00,11.9,,,2897,1023.06,98.70,2.11,2.80,0.08,1.00,1.24,,,
2018-10-06 02:00,,,,,,,,,,,,,,
2018-10-06 03:00,11.8,,,2913,1023.55,141.10,1.16,1.79,0.00,1.00,0.62,,,
2018-10-06 04:00,11.9,,,2909,1023.68,334.90,2.05,2.72,0.14,1.00,1.19,,,
2018-10-06 05:00,11.7,,,2993,1023.55,317.80,5.46,5.88,2.50,1.00,4.13,,,
2018-10-06 06:00,11.4,,,2993,1023.06,327.70,4.96,5.61,2.72,1.00,4.03,,,
2018-10-06 07:00,11.4,,,2993,1022.69,333.80,5.09,6.05,2.56,1.00,4.09,,,
2018-10-06 08:00,11.4,,,2993,1022.69,347.71,4.11,4.32,1.62,1.00,3.18,,,
2018-10-06 09:00,11.4,,,2993,1023.55,355.34,4.70,5.14,2.51,1.00,3.74,,,
2018-10-06 10:00,11.6,,,2993,1023.43,13.26,3.98,4.30,1.80,1.00,3.12,,,
2018-10-06 11:00,11.6,,,2993,1023.80,20.89,4.26,4.93,2.54,1.00,3.49,,,
2018-10-06 12:00,12.4,,,2532,1024.29,15.86,3.62,4.09,1.21,1.00,2.52,,,
2018-10-06 13:00,12.4,,,2545,1024.91,355.13,3.88,4.24,1.67,1.00,2.90,,,
2018-10-06 14:00,12.3,,,2825,1024.79,33.71,2.45,2.69,0.33,1.00,1.60,,,
2018-10-06 15:00,13.4,,,2864,1023.92,110.30,3.43,3.93,0.72,1.00,2.33,,,
2018-10-06 16:00,13.0,,,2898,1024.29,123.80,3.72,4.11,0.60,1.00,2.19,,,
2018-10-06 17:00,13.1,,,2898,1023.92,140.60,3.73,4.39,0.83,1.00,2.71,,,
2018-10-06 18:00,13.3,,,2859,1023.68,161.20,4.08,4.50,1.55,1.00,2.89,,,
2018-10-06 19:00,13.4,,,2876,1023.31,168.40,4.97,5.47,2.21,1.00,3.79,,,
2018-10-06 20:00,13.6,,,2275,1022.57,161.20,5.80,6.08,3.27,1.00,4.70,,,
2018-10-06 21:00,13.6,,,2862,1022.32,161.70,6.19,6.67,3.48,1.00,5.34,,,
2018-10-06 22:00,13.9,,,2963,1021.71,173.40,7.49,8.20,3.59,1.00,6.15,,,
2018-10-06 23:00,14.1,,,2993,1021.34,178.70,8.22,9.31,4.24,1.00,6.77,,,
2018-10-07 00:00,14.4,,,2993,1021.09,187.70,8.18,9.13,4.09,1.00,6.97,,,
2018-10-07 01:00,14.7,,,2993,1021.09,191.30,8.48,9.39,4.50,1.00,6.95,,,
2018-10-07 02:00,15.0,,,2993,1020.97,185.90,6.71,7.66,3.52,1.00,5.32,,,
2018-10-07 03:00,15.4,,,2993,1020.60,210.10,7.63,8.00,4.08,1.00,6.27,,,
2018-10-07 04:00,,,,,,,,,,,,,,
2018-10-07 05:00,15.4,,,2993,1019.61,205.70,7.69,8.78,3.68,1.00,6.19,,,
2018-10-07 06:00,15.4,,,2993,1018.63,211.00,10.44,11.54,5.83,1.00,8.52,,,
2018-10-07 07:00,15.4,,,2993,1018.88,226.10,9.21,10.12,4.83,1.00,7.34,,,
2018-10-07 08:00,15.2,,,2993,1018.51,217.10,7.82,7.97,4.34,1.00,6.27,,,
2018-10-07 09:00,15.2,,,2993,1018.38,230.60,8.01,8.93,4.22,1.00,6.50,,,
2018-10-07 10:00,15.5,,,2993,1018.14,220.20,8.82,9.56,4.93,1.00,7.66,,,
2018-10-07 11:00,15.4,,,2993,1019.12,237.00,5.05,5.99,2.47,1.00,4.01,,,
2018-10-07 12:00,15.4,,,2993,1019.37,215.20,5.61,6.60,2.86,1.00,4.68,,,
2018-10-07 13:00,15.4,,,2993,1019.74,217.90,4.42,5.08,2.56,1.00,3.78,,,
2018-10-07 14:00,15.5,,,2993,1019.98,206.40,3.96,4.42,1.80,1.00,3.20,,,
2018-10-07 15:00,15.8,,,2993,1020.60,243.20,1.19,1.53,0.04,1.00,0.64,,,
2018-10-07 16:00,15.5,,,2993,1021.34,27.12,2.54,3.30,0.91,1.00,2.07,,,
2018-10-07 17:00,15.6,,,2993,1021.58,359.50,4.01,4.64,1.64,1.00,3.14,,,
2018-10-07 18:00,15.2,,,2993,1021.95,31.72,7.43,7.93,3.80,1.00,6.12,,,
2018-10-07 19:00,,,,,,,,,,,,,,
2018-10-07 20:00,14.9,,,2993,1023.18,83.10,7.17,7.94,3.80,1.00,5.83,,,
2018-10-07 21:00,15.0,,,2993,1023.80,67.30,6.56,7.14,3.47,1.00,5.63,,,
2018-10-07 22:00,14.9,,,2993,1024.66,79.70,8.07,8.80,3.95,1.00,6.26,,,
2018-10-07 23:00,14.6,,,2993,1025.28,69.70,8.82,9.40,4.08,1.00,6.86,,,
2018-10-08 00:00,14.5,,,2993,1026.02,68.70,7.96,8.86,3.41,1.00,6.58,,,
2018-10-08 01:00,14.5,,,2993,1026.51,67.80,7.34,8.22,3.91,1.00,6.10,,,
2018-10-08 02:00,14.5,,,2993,1027.25,66.60,7.26,8.17,3.45,1.00,6.04,,,
2018-10-08 03:00,14.3,,,2993,1027.62,61.73,6.98,7.70,3.39,1.00,5.66,,,
2018-10-08 04:00,,,,,,,,,,,,,,
2018-10-08 05:00,12.8,,,2993,1028.85,59.98,10.53,11.06,5.01,1.00,9.02,,,
2018-10-08 06:00,12.3,,,2993,1030.09,58.61,10.49,11.63,6.18,1.00,9.03,,,
2018-10-08 07:00,11.9,,,2993,1029.97,56.02,10.26,11.15,4.87,1.00,8.62,,,
2018-10-08 08:00,11.6,,,2993,1030.46,44.53,10.37,10.86,4.30,1.00,8.46,,,
2018-10-08 09:00,11.3,,,2993,1031.32,39.10,9.98,10.62,5.25,1.00,8.32,,,
2018-10-08 10:00,10.9,,,2993,1031.82,48.20,10.24,11.07,4.47,1.00,8.67,,,
2018-10-08 11:00,10.7,,,2993,1032.68,46.85,9.97,10.93,5.31,1.00,8.22,,,
2018-10-08 12:00,10.5,,,2993,1033.42,43.70,10.22,11.07,4.47,1.00,7.35,,,
2018-10-08 13:00,10.4,,,2993,1033.67,56.75,8.65,9.76,4.26,1.00,7.18,,,
2018-10-08 14:00,10.4,,,2993,1033.92,57.23,8.14,8.85,3.65,1.00,6.51,,,
2018-10-08 15:00,10.4,,,2993,1033.92,51.50,7.59,8.20,3.59,1.00,5.87,,,
2018-10-08 16:00,10.3,,,2993,1034.04,50.12,7.75,8.52,3.97,1.00,6.03,,,
2018-10-08 17:00,10.4,,,2993,1033.42,58.51,6.45,7.25,2.59,1.00,5.12,,,
2018-10-08 18:00,10.5,,,2993,1033.05,58.93,5.94,6.75,2.37,1.00,4.63,,,
2018-10-08 19:00,10.5,,,2993,1032.93,58.60,5.36,5.86,2.46,1.00,4.10,,,
2018-10-08 20:00,10.6,,,2993,1032.93,58.42,5.26,6.33,1.74,1.00,3.58,,,
2018-10-08 21:00,10.9,,,2993,1032.31,67.70,4.94,5.55,1.73,1.00,3.41,,,
2018-10-08 22:00,11.3,,,2993,1031.94,99.20,3.57,4.27,0.75,1.00,2.39,,,
2018-10-08 23:00,11.6,,,2993,1032.06,120.90,3.22,3.51,1.07,1.00,2.31,,,
2018-10-09 00:00,11.8,,,2993,1031.57,146.90,3.60,3.91,1.39,1.00,2.67,,,
2018-10-09 02:00,12.6,,,2993,1030.83,223.10,3.83,4.31,1.29,1.00,2.83,,,
2018-10-09 03:00,11.5,,,2993,1029.97,264.00,3.11,3.80,1.10,1.00,2.59,,,
2018-10-09 04:00,11.7,,,2993,1029.47,265.20,3.10,3.88,1.13,1.00,2.47,,,
2018-10-09 05:00,11.7,,,2993,1029.10,246.50,3.79,4.57,1.93,1.00,3.15,,,
2018-10-09 06:00,11.7,,,2993,1028.36,230.50,5.78,5.93,3.32,1.00,4.67,,,
2018-10-09 07:00,12.5,,,2993,1027.50,229.10,6.22,7.07,3.42,1.00,5.36,,,
2018-10-09 08:00,12.9,,,2993,1027.25,236.60,7.12,8.15,3.92,1.00,6.05,,,
2018-10-09 09:00,13.5,,,2898,1026.51,225.20,9.24,9.93,5.80,1.00,7.79,,,
2018-10-09 10:00,13.9,,,2993,1026.02,219.70,8.03,8.92,4.59,1.00,7.03,,,
2018-10-09 11:00,14.2,,,2993,1025.77,224.00,7.78,8.50,4.09,1.00,6.35,,,
2018-10-09 12:00,14.5,,,2993,1025.65,237.20,6.77,7.59,3.95,1.00,5.73,,,
2018-10-09 13:00,14.7,,,2993,1024.91,231.80,7.06,8.12,4.29,1.00,6.18,,,
2018-10-09 14:00,15.6,,,2993,1024.17,216.80,8.58,9.41,5.18,1.00,7.47,,,
2018-10-09 15:00,16.4,,,2993,1023.68,216.10,7.15,8.30,3.78,1.00,5.86,,,
2018-10-09 16:00,16.5,,,2993,1023.18,214.70,6.48,7.08,3.41,1.00,5.33,,,
2018-10-09 17:00,17.5,,,2993,1022.20,227.40,7.32,8.52,4.23,1.00,6.28,,,
2018-10-09 18:00,17.2,,,2993,1021.46,211.40,5.47,6.10,2.96,1.00,4.81,,,
2018-10-09 19:00,17.5,,,2993,1020.97,208.20,4.98,5.86,2.65,1.00,4.28,,,
2018-10-09 20:00,18.5,,,2993,1020.72,219.50,7.00,7.99,3.89,1.00,5.84,,,
2018-10-09 21:00,17.9,,,2919,1020.72,215.10,5.93,6.55,3.25,1.00,4.94,,,
2018-10-09 22:00,18.0,,,2986,1020.35,220.70,6.55,7.22,3.85,1.00,5.47,,,
2018-10-09 23:00,17.4,,,2993,1020.48,224.00,4.35,5.16,2.49,1.00,3.83,,,
2018-10-10 00:00,17.1,,,2993,1020.35,215.50,6.03,6.82,3.90,1.00,5.53,,,
2018-10-10 01:00,17.2,,,2993,1019.98,216.00,6.24,7.00,3.88,1.00,5.36,,,
2018-10-10 02:00,17.1,,,2993,1019.74,215.70,5.75,6.27,3.56,1.00,5.06,,,
2018-10-10 03:00,17.0,,,2993,1019.00,219.80,6.62,7.45,4.39,1.00,5.88,,,
2018-10-10 04:00,16.6,,,2993,1018.75,222.80,5.19,5.89,3.34,1.00,4.67,,,
2018-10-10 05:00,17.0,,,2993,1018.75,239.40,5.73,6.70,3.88,1.00,5.16,,,
2018-10-10 06:00,16.5,,,2993,1018.14,233.00,5.26,6.08,3.46,1.00,4.72,,,
2018-10-10 07:00,17.2,,,2993,1017.40,233.80,7.64,8.71,5.27,1.00,6.69,,,
2018-10-10 08:00,,,,,,,,,,,,,,
2018-10-10 09:00,16.7,,,2993,1017.40,220.70,6.32,7.07,4.28,1.00,5.69,,,
2018-10-10 10:00,16.6,,,2993,1017.40,217.50,5.78,6.44,3.48,1.00,5.06,,,
2018-10-10 11:00,16.4,,,2993,1017.03,221.90,7.29,7.70,4.91,1.00,6.56,,,
2018-10-10 12:00,16.7,,,2993,1017.40,228.00,5.09,5.76,2.88,1.00,4.41,,,
2018-10-10 13:00,17.0,,,2993,1017.28,236.40,5.04,5.81,3.03,1.00,4.53,,,
2018-10-10 14:00,17.1,,,2993,1016.79,231.60,6.26,7.03,3.13,1.00,5.31,,,
2018-10-10 15:00,17.8,,,2993,1015.80,235.70,5.02,5.79,3.29,1.00,4.47,,,
2018-10-10 16:00,18.5,,,2993,1014.94,227.50,5.94,6.88,3.62,1.00,4.92,,,
2018-10-10 17:00,18.8,,,2993,1014.21,233.40,5.91,6.37,3.94,1.00,5.04,,,
2018-10-10 18:00,20.1,,,2993,1013.35,220.10,5.53,6.24,2.24,1.00,4.34,,,
2018-10-10 19:00,19.2,,,2993,1012.86,219.90,4.91,5.64,2.97,1.00,4.30,,,
2018-10-10 20:00,19.3,,,2993,1012.73,205.20,3.86,4.53,2.21,1.00,3.37,,,
2018-10-10 21:00,19.6,,,2993,1012.73,216.40,3.56,4.12,2.12,1.00,3.05,,,
2018-10-10 22:00,19.2,,,2904,1012.61,216.20,3.90,4.45,2.80,1.00,3.65,,,
2018-10-10 23:00,17.1,,,2993,1012.86,166.10,2.57,3.23,1.38,1.00,2.22,,,
2018-10-11 00:00,17.2,,,2993,1012.61,174.40,2.35,2.72,1.11,1.00,1.90,,,
2018-10-11 01:00,16.0,,,2993,1012.98,22.02,11.92,12.48,4.21,1.00,7.90,,,
2018-10-11 02:00,14.6,,, 867,1013.47,47.69,10.02,10.64,6.26,1.00,8.55,,,
2018-10-11 03:00,14.2,,,2993,1013.59,55.27,10.53,11.42,5.59,1.00,8.75,,,
2018-10-11 04:00,14.0,,,2993,1013.72,62.96,10.45,11.32,5.71,1.00,8.54,,,
2018-10-11 05:00,13.8,,,2993,1013.22,58.61,10.24,11.02,5.86,1.00,8.71,,,
2018-10-11 06:00,13.8,,,2993,1013.35,59.68,8.58,9.47,5.03,1.00,7.13,,,
2018-10-11 07:00,13.3,,,2483,1012.73,56.80,8.53,9.14,4.86,1.00,7.25,,,
2018-10-11 08:00,12.9,,,2525,1012.36,49.76,10.21,11.21,5.80,1.00,8.76,,,
2018-10-11 09:00,12.9,,,2914,1011.63,57.68,11.26,11.88,6.28,1.00,9.35,,,
2018-10-11 10:00,12.5,,,2993,1011.75,57.50,10.70,11.83,6.46,1.00,8.85,,,
2018-10-11 11:00,12.7,,,1995,1011.14,65.20,10.29,11.32,5.54,1.00,8.86,,,
2018-10-11 12:00,12.7,,,2979,1010.77,51.95,10.54,11.12,5.87,1.00,8.69,,,
2018-10-11 13:00,12.9,,,2787,1010.16,47.37,9.89,10.76,5.40,1.00,8.51,,,
2018-10-11 14:00,13.0,,,2992,1009.79,14.50,9.34,10.87,5.17,1.00,7.84,,,
2018-10-11 15:00,12.8,,,2993,1008.56,18.68,8.58,9.11,5.00,1.00,7.22,,,
2018-10-11 16:00,12.5,,,2993,1007.70,10.83,8.67,9.52,4.31,1.00,7.26,,,
2018-10-11 17:00,12.3,,,2993,1006.85,1.09,8.94,9.80,3.54,1.00,6.91,,,
2018-10-11 18:00,12.5,,,2993,1006.11,8.68,7.74,8.21,3.93,1.00,6.34,,,
2018-10-11 19:00,12.4,,,2993,1005.13,14.44,7.43,8.37,4.31,1.00,6.45,,,
2018-10-11 20:00,12.5,,,2842,1004.40,17.57,7.44,8.02,3.74,1.00,6.28,,,
2018-10-11 21:00,12.5,,,1715,1003.54,22.49,8.13,8.70,4.83,1.00,7.00,,,
2018-10-11 22:00,12.5,,,1872,1000.85,69.60,11.24,11.83,0.00,1.00,9.52,,,
2018-10-11 23:00,12.2,,,2960,1002.56,345.76,9.26,10.07,5.38,1.00,7.91,,,
2018-10-12 00:00,12.0,,,2993,1001.46,10.64,8.01,8.98,4.63,1.00,6.90,,,
2018-10-12 01:00,11.8,,,2993,1000.12,29.89,8.35,9.24,4.11,1.00,6.49,,,
2018-10-12 02:00,11.9,,,2993,1001.83,345.04,8.52,8.89,3.61,1.00,6.24,,,
2018-10-12 03:00,11.6,,,2993,1000.48,19.11,5.22,5.78,2.14,1.00,3.86,,,
2018-10-12 04:00,11.6,,,2993,1000.36,356.18,5.44,5.82,2.89,1.00,4.33,,,
2018-10-12 05:00,11.5,,,2993,1000.24,357.99,6.58,6.78,4.00,1.00,5.55,,,
2018-10-12 06:00,11.6,,,2993,999.75,2.36,4.74,4.96,1.28,1.00,3.28,,,
2018-10-12 07:00,11.8,,,2993,998.28,11.16,6.40,6.73,2.83,1.00,4.95,,,
2018-10-12 08:00,11.6,,,2993,999.14,356.33,3.24,3.80,1.39,1.00,2.56,,,
2018-10-12 09:00,11.5,,,2993,998.53,4.59,5.25,5.87,2.51,1.00,4.19,,,
2018-10-12 10:00,11.5,,,2993,999.87,8.53,3.10,3.78,1.02,1.00,2.34,,,
2018-10-12 11:00,11.9,,,2993,999.02,352.81,7.40,8.09,4.38,1.00,6.26,,,
2018-10-12 12:00,11.8,,,2993,999.26,348.53,6.35,6.89,3.31,1.00,5.35,,,
2018-10-12 13:00,12.1,,,2993,998.40,1.67,7.49,8.18,4.44,1.00,6.05,,,
2018-10-12 14:00,12.5,,,2993,998.04,354.98,8.51,9.07,4.21,1.00,7.15,,,
2018-10-12 15:00,12.7,,,2993,998.40,358.43,6.93,7.88,2.83,1.00,5.82,,,
2018-10-12 16:00,12.8,,,2993,997.92,346.47,7.83,8.58,3.96,1.00,6.72,,,
2018-10-12 17:00,13.0,,,2971,997.55,342.10,5.96,7.08,2.86,1.00,4.76,,,
2018-10-12 18:00,13.6,,,2944,997.06,335.50,5.58,6.41,2.59,1.00,4.38,,,
2018-10-12 19:00,14.4,,,2900,997.18,310.60,9.78,10.62,4.86,1.00,8.01,,,
2018-10-12 20:00,14.6,,,2934,998.04,301.90,11.00,11.96,6.18,1.00,9.06,,,
2018-10-12 21:00,14.1,,,2896,998.65,306.60,13.29,14.98,7.31,1.00,11.15,,,
2018-10-12 22:00,13.7,,,2867,1000.24,303.00,11.23,11.91,6.60,1.00,9.04,,,
2018-10-12 23:00,13.2,,,2888,1001.58,304.80,8.65,9.10,4.70,1.00,6.88,,,
2018-10-13 00:00,12.6,,,2876,1002.56,302.20,9.99,10.57,5.19,1.00,8.13,,,
2018-10-13 01:00,12.1,,,2844,1003.91,303.60,7.30,8.36,3.47,1.00,6.07,,,
2018-10-13 02:00,11.5,,,2862,1004.52,297.10,4.96,5.58,2.73,1.00,4.16,,,
2018-10-13 03:00,11.5,,,2858,1005.01,292.20,8.06,8.51,4.05,1.00,6.23,,,
2018-10-13 04:00,11.1,,,2842,1005.25,284.70,7.23,8.07,4.31,1.00,6.07,,,
2018-10-13 05:00,10.9,,,2843,1005.62,282.50,8.59,9.28,4.61,1.00,7.01,,,
2018-10-13 06:00,10.9,,,2843,1005.25,293.50,7.45,8.13,3.63,1.00,6.09,,,
2018-10-13 07:00,10.9,,,2856,1005.50,294.20,7.65,8.93,3.55,1.00,6.11,,,
2018-10-13 08:00,10.6,,,2841,1005.74,284.70,6.85,7.81,2.86,1.00,5.68,,,
2018-10-13 09:00,10.5,,,2860,1005.99,287.90,5.69,6.80,2.36,1.00,4.31,,,
2018-10-13 10:00,10.2,,,2836,1006.23,300.80,5.27,5.92,2.72,1.00,4.30,,,
2018-10-13 11:00,10.4,,,2873,1007.34,288.00,6.22,6.68,3.22,1.00,4.96,,,
2018-10-13 12:00,10.0,,,2993,1007.46,198.90,5.82,6.36,1.33,1.00,2.90,,,
2018-10-13 13:00,9.6,,,2993,1008.07,215.20,8.02,8.29,3.58,1.00,5.58,,,
2018-10-13 14:00,9.4,,,2769,1008.69,263.40,9.17,9.66,5.16,1.00,7.52,,,
2018-10-13 15:00,8.9,,,2993,1008.81,271.70,9.39,9.94,4.33,1.00,7.54,,,
2018-10-13 16:00,8.6,,,2898,1008.81,272.30,9.83,10.31,4.90,1.00,7.77,,,
2018-10-13 17:00,8.5,,,2936,1008.56,279.70,9.03,9.72,4.51,1.00,7.03,,,
2018-10-13 19:00,8.7,,,2993,1008.56,289.50,6.76,7.48,3.10,1.00,5.17,,,
2018-10-13 20:00,9.1,,,2993,1009.05,285.10,8.92,9.43,5.36,1.00,7.41,,,
2018-10-13 21:00,10.3,,,2993,1009.30,285.90,8.66,9.56,5.03,1.00,6.93,,,
2018-10-13 22:00,10.5,,,2993,1010.03,283.60,8.47,8.77,3.66,1.00,6.10,,,
2018-10-13 23:00,10.5,,,2993,1011.26,289.80,9.11,10.04,4.94,1.00,7.59,,,
2018-10-14 00:00,10.5,,,2993,1012.36,281.10,7.17,8.69,4.13,1.00,6.21,,,
2018-10-14 01:00,10.4,,,2993,1013.22,276.00,7.89,8.59,3.78,1.00,6.39,,,
2018-10-14 02:00,10.1,,,2993,1014.45,280.30,9.20,10.06,5.11,1.00,7.57,,,
2018-10-14 03:00,9.8,,,2992,1015.19,276.80,9.82,10.72,5.15,1.00,7.93,,,
2018-10-14 04:00,9.5,,,2922,1015.07,274.20,7.84,8.73,4.38,1.00,6.70,,,
2018-10-14 05:00,9.2,,,2852,1015.93,275.00,8.27,9.18,4.41,1.00,6.67,,,
2018-10-14 06:00,9.0,,,2820,1016.54,283.00,8.52,9.01,4.45,1.00,6.96,,,
2018-10-14 07:00,9.3,,,2826,1017.03,284.30,8.98,9.78,4.80,1.00,7.44,,,
2018-10-14 08:00,8.2,,,2806,1017.77,275.40,9.02,9.95,4.91,1.00,7.28,,,
2018-10-14 09:00,8.5,,,2799,1018.02,287.40,8.82,9.22,5.20,1.00,7.37,,,
2018-10-14 10:00,8.3,,,2810,1019.25,264.60,7.55,8.59,4.66,1.00,6.65,,,
2018-10-14 11:00,7.7,,,2786,1019.74,265.00,8.54,9.18,4.91,1.00,7.11,,,
2018-10-14 12:00,8.4,,,2778,1020.72,269.50,9.28,10.64,5.30,1.00,8.02,,,
2018-10-14 13:00,8.3,,,2829,1021.09,279.50,8.12,8.76,4.60,1.00,6.72,,,
2018-10-14 14:00,8.7,,,2733,1021.34,269.90,7.66,8.91,4.03,1.00,6.49,,,
2018-10-14 15:00,9.5,,,2826,1021.21,281.00,6.73,7.41,3.50,1.00,5.28,,,
2018-10-14 16:00,10.1,,,2867,1020.97,272.50,6.41,6.82,2.73,1.00,4.46,,,
2018-10-14 17:00,10.7,,,2886,1020.84,245.90,6.19,6.91,1.21,1.00,3.27,,,
2018-10-14 18:00,11.7,,,2842,1020.35,263.30,6.84,7.55,2.59,1.00,5.29,,,
2018-10-14 19:00,12.4,,,2671,1020.11,246.80,6.94,7.87,3.46,1.00,5.64,,,
2018-10-14 20:00,13.0,,,2691,1020.35,236.40,7.77,8.39,3.20,1.00,6.16,,,
2018-10-14 21:00,13.3,,,2743,1020.48,247.40,8.65,9.35,4.68,1.00,7.30,,,
2018-10-14 22:00,13.3,,,2907,1020.97,257.70,7.10,7.93,3.20,1.00,5.72,,,
2018-10-14 23:00,13.0,,,2850,1021.34,243.60,7.08,8.20,3.87,1.00,5.96,,,
2018-10-15 00:00,13.1,,,2872,1021.58,243.90,7.48,7.99,3.97,1.00,6.20,,,
2018-10-15 01:00,13.0,,,2866,1021.83,242.20,7.50,8.16,4.42,1.00,6.55,,,
2018-10-15 02:00,12.4,,,2915,1021.95,258.70,6.95,7.30,3.95,1.00,5.75,,,
2018-10-15 03:00,11.7,,,2934,1022.57,260.30,7.28,8.01,4.41,1.00,6.24,,,
2018-10-15 04:00,11.1,,,2915,1022.44,280.30,6.29,6.86,3.42,1.00,5.40,,,
2018-10-15 05:00,11.0,,,2901,1022.69,273.40,4.35,4.69,2.68,1.00,3.55,,,
2018-10-15 06:00,11.1,,,2886,1022.20,307.00,2.27,2.42,0.62,1.00,1.51,,,
2018-10-15 07:00,10.7,,,2933,1022.08,244.10,3.45,3.90,1.67,1.00,2.85,,,
2018-10-15 08:00,10.7,,,2897,1021.83,252.40,3.29,3.85,1.88,1.00,2.86,,,